Theta_e
342 342 342 341 341 342 341 345 345 342 346 346 346 343 339 337 332 326 327 330 332 336 339 341 344 349 352 355 356 355 357 356 355 360 358 358 360 350 344 345 345 346 345 345 345 345 345 345 345 347 348 348 349 350 350 351 352 353 353 354 355 356 357 356 357 356 356 357 356 357 359 360 362 364
340 339 339 340 339 341 343 338 340 342 345 348 342 339 337 339 332 330 326 328 335 335 340 339 343 355 351 358 361 360 360 354 357 357 359 357 358 347 344 345 345 345 344 343 343 343 343 344 344 344 344 345 347 348 348 348 348 349 350 352 352 353 353 353 354 354 355 355 356 355 356 357 358 358
338 338 336 338 338 339 339 339 339 340 342 346 347 344 341 340 340 336 332 327 334 338 335 339 341 349 354 353 356 356 355 354 358 356 358 358 353 349 351 343 344 344 343 342 341 340 339 341 342 341 341 342 344 345 346 346 346 347 348 348 349 349 349 350 350 351 352 352 353 352 353 354 355 356
339 338 337 337 336 337 338 337 337 338 339 340 341 342 341 342 337 339 334 330 329 337 337 339 342 344 349 361 357 357 355 355 351 355 356 360 353 362 358 347 342 342 341 341 340 338 338 339 340 340 341 341 343 344 344 343 344 345 345 345 346 347 347 346 347 348 349 350 349 350 351 351 353 354
336 333 332 332 333 336 337 337 336 335 339 341 341 337 340 341 341 336 335 331 331 334 339 340 340 343 347 354 354 352 352 352 355 351 353 355 359 359 360 362 346 342 340 339 339 338 338 338 338 338 340 340 342 343 344 343 342 342 342 342 343 343 344 343 343 345 346 347 347 348 349 349 349 351
332 332 330 330 331 333 334 335 338 338 335 337 335 341 339 336 336 341 335 335 334 331 336 338 343 342 343 345 354 350 349 347 349 350 352 352 357 359 362 359 361 344 341 338 337 337 337 338 337 337 338 339 340 340 341 341 340 339 339 339 340 340 339 339 340 342 343 344 346 346 346 347 347 348
332 331 330 330 332 333 333 334 335 336 335 334 335 334 334 332 336 340 337 334 334 333 335 340 340 341 344 342 344 352 352 349 350 351 350 351 353 356 359 360 360 347 341 338 337 337 337 337 337 337 337 337 337 337 337 337 337 337 337 337 338 338 337 337 338 340 340 342 343 345 345 345 345 346
331 330 331 331 332 332 331 331 332 331 334 333 335 332 336 334 333 341 339 335 336 335 333 337 338 340 341 344 343 348 355 349 349 349 351 351 353 359 356 359 360 350 340 339 338 337 336 336 336 335 335 335 334 334 334 334 334 334 334 334 334 334 334 333 334 337 337 337 340 342 343 344 343 341
330 331 331 331 331 330 329 329 329 329 328 329 331 332 333 335 336 334 336 340 340 336 334 336 339 341 342 345 344 346 348 351 352 351 347 348 358 357 358 356 357 350 339 340 338 336 335 335 335 335 334 334 333 332 331 331 332 331 331 331 331 332 332 331 330 332 333 333 335 335 337 339 341 342
331 330 330 329 329 328 327 326 326 326 326 326 326 327 330 335 335 333 337 342 342 338 336 336 335 338 339 340 342 345 349 347 346 349 349 347 356 356 353 353 355 359 356 355 349 338 336 335 334 334 334 333 332 331 330 329 328 327 327 325 325 327 329 329 331 330 330 330 332 333 334 336 337 339
331 330 329 328 327 327 327 325 323 323 324 324 324 325 327 330 332 331 332 340 341 340 339 336 336 336 339 341 340 345 347 350 347 345 343 341 352 355 351 351 354 352 355 353 346 348 345 341 339 332 331 332 332 331 329 327 325 324 323 322 321 322 323 324 326 328 328 328 329 328 328 331 335 337
329 329 328 328 328 327 326 324 324 324 324 324 324 325 325 326 329 330 332 334 334 331 334 336 335 336 336 338 341 343 347 341 345 346 343 343 346 349 351 352 353 354 357 359 358 348 345 342 339 333 330 331 332 330 330 330 329 325 323 322 324 324 322 322 323 324 324 324 323 324 325 325 329 332
329 329 329 328 328 328 321 319 320 320 318 323 322 324 324 324 324 326 329 331 333 335 338 336 337 336 335 337 338 337 340 343 341 346 348 345 348 352 351 353 359 360 359 358 356 357 359 356 356 355 353 351 339 337 334 339 335 329 324 323 325 326 324 321 321 323 323 323 322 321 322 324 326 330
329 328 329 329 327 319 319 320 320 318 318 318 321 323 322 322 322 322 324 327 329 329 335 333 333 330 331 334 337 335 340 346 348 345 346 344 346 350 348 354 355 356 355 355 356 358 361 357 357 358 356 358 353 354 349 348 347 338 329 327 326 326 325 323 322 321 321 321 321 320 319 321 324 326
329 329 331 330 328 325 324 327 321 320 319 319 318 317 317 317 320 321 322 323 328 330 331 334 332 332 332 334 338 336 339 343 345 345 345 344 342 341 340 339 348 353 351 352 351 355 360 358 355 356 357 357 359 357 355 344 340 337 332 329 328 327 327 326 325 323 321 320 319 319 318 319 321 322
330 329 330 331 331 330 328 327 326 325 322 319 318 317 317 316 316 316 322 324 325 327 329 330 332 333 333 335 339 336 339 341 344 346 344 343 342 341 341 343 342 350 352 351 350 350 357 356 351 348 350 353 356 359 348 341 339 337 335 332 330 329 328 327 328 327 325 322 322 322 321 321 322 322
331 331 330 330 329 329 323 327 327 327 326 320 318 317 318 319 318 320 319 317 325 327 327 329 332 335 335 336 337 339 340 344 342 344 344 344 345 344 342 343 345 353 358 355 351 346 352 353 348 344 348 352 355 357 344 340 339 337 335 332 331 329 328 327 327 327 325 324 323 322 322 321 321 320
332 332 331 330 330 330 330 330 328 328 326 325 324 323 323 324 323 319 319 317 314 319 327 328 329 335 337 336 339 342 343 342 342 342 341 344 343 341 341 348 349 356 356 353 347 345 349 353 347 342 345 349 355 359 350 338 336 336 333 332 329 328 327 326 326 325 325 324 323 321 319 318 318 318
333 333 333 333 331 330 330 330 327 327 326 324 322 322 322 323 324 325 327 328 328 328 329 329 331 335 339 341 342 343 347 347 346 347 347 346 346 350 352 350 353 357 359 356 353 341 344 351 346 344 347 351 353 356 344 334 334 333 330 330 328 328 326 326 326 324 323 323 321 319 317 316 315 314
334 336 335 334 333 330 331 324 317 319 322 321 321 321 322 322 323 325 320 320 322 325 327 328 332 335 337 333 343 343 342 346 350 348 350 349 350 347 342 338 344 345 351 357 350 345 344 349 344 345 349 356 352 355 354 334 332 330 329 330 328 326 324 324 324 323 322 322 321 319 316 313 312 311
335 337 338 337 333 332 332 323 317 316 313 321 322 322 322 322 322 323 326 322 318 317 315 314 317 319 322 325 324 324 327 340 349 352 344 336 339 337 336 337 346 346 349 353 351 346 342 348 347 346 350 351 346 349 354 352 332 330 328 327 326 324 323 322 321 321 322 321 321 320 318 313 311 311
336 338 331 334 334 332 331 320 315 314 316 322 323 322 321 320 320 322 324 325 325 319 317 317 317 318 320 323 324 324 324 324 330 343 337 341 342 340 337 333 340 341 347 351 353 347 342 347 348 347 349 351 352 352 355 357 344 328 323 324 324 321 321 320 319 320 320 320 320 318 316 312 311 320
334 337 335 330 327 328 326 315 312 312 313 320 321 322 321 320 320 321 324 323 322 324 325 327 331 326 323 329 336 338 322 323 329 344 345 345 345 338 341 337 339 338 342 348 352 340 340 343 345 344 339 336 343 350 349 354 348 345 345 338 332 320 321 319 317 316 317 318 318 317 312 309 313 335
330 329 329 329 322 318 314 310 308 308 308 315 320 322 322 321 320 324 322 323 323 324 326 327 331 335 334 334 337 340 340 334 339 342 345 346 345 342 338 339 338 336 338 347 347 343 343 345 344 353 342 338 335 345 348 353 351 350 348 344 342 320 321 317 314 311 312 314 314 314 311 308 314 343
325 326 327 329 323 315 309 307 306 305 306 307 316 322 324 323 319 314 320 325 320 327 333 331 333 338 338 337 338 338 339 339 340 339 341 342 343 345 339 339 336 337 342 349 342 349 344 344 345 346 341 342 341 346 349 351 351 349 350 348 346 337 334 335 333 329 311 309 308 308 307 309 310 332
326 327 328 330 324 309 309 306 303 302 304 308 317 326 312 309 312 320 325 326 325 328 333 335 336 338 338 337 337 337 338 339 340 340 341 341 340 343 343 340 339 338 338 358 336 352 351 350 346 344 342 340 339 342 345 347 349 349 349 349 348 344 342 342 342 340 336 332 326 315 317 309 314 313
327 328 329 330 320 311 305 302 302 303 305 309 322 309 308 310 313 319 326 324 324 325 327 329 331 335 339 336 336 337 336 338 341 340 340 342 342 343 344 345 345 346 349 355 352 357 354 346 346 344 341 342 340 339 342 340 342 348 346 347 348 347 346 344 343 342 341 340 340 312 311 309 311 314
327 330 330 327 311 305 301 301 303 305 307 318 308 308 311 312 317 326 325 323 323 324 324 325 327 327 329 333 343 341 340 338 342 341 342 343 344 344 343 345 345 348 348 349 350 353 354 345 344 346 344 342 341 340 339 344 345 343 342 345 347 347 347 346 344 342 341 342 338 333 337 335 330 324
327 321 310 307 306 307 305 304 307 312 316 313 311 312 313 317 327 325 323 322 322 321 321 322 324 325 327 329 333 339 343 343 342 344 342 344 345 347 350 349 349 349 347 350 354 358 355 351 348 349 345 344 343 341 339 344 342 342 341 341 341 345 346 347 345 342 340 341 337 336 338 339 337 333
315 311 309 309 310 312 317 331 331 330 328 316 316 318 320 327 326 324 323 322 322 321 321 322 323 325 328 331 335 338 340 343 346 343 344 341 342 343 343 344 344 344 346 348 352 352 352 351 347 345 343 344 346 343 342 341 341 341 341 341 343 343 345 345 344 342 339 338 338 338 341 341 339 335
324 325 323 324 316 315 315 317 319 321 325 327 325 327 326 326 325 323 323 323 322 321 321 322 323 325 327 329 331 332 334 337 342 344 342 343 343 340 342 345 339 341 344 346 348 347 349 349 349 345 342 340 344 345 344 344 345 342 341 343 341 337 341 343 343 341 341 340 340 338 340 340 339 337
324 325 321 323 332 334 332 331 326 327 328 326 323 322 321 321 320 320 320 320 324 324 324 324 324 324 325 324 325 326 326 329 338 342 340 337 340 343 344 342 342 343 342 344 349 349 351 351 351 348 344 342 339 344 349 349 344 343 343 345 343 343 342 341 341 342 343 342 339 338 339 340 338 338
321 327 329 328 321 322 321 320 320 320 321 322 321 318 317 317 316 315 317 316 319 323 324 323 323 322 323 323 324 324 323 324 325 332 340 343 341 341 342 340 339 337 333 338 341 347 350 351 353 349 348 347 347 345 345 341 345 347 343 343 346 346 347 344 342 341 344 341 338 338 337 338 339 339
318 326 321 321 319 318 318 316 316 316 317 317 317 317 315 316 315 313 314 315 318 320 322 323 322 322 322 321 323 323 323 323 324 324 322 325 333 336 334 335 336 337 336 339 341 341 342 345 346 345 344 342 339 337 337 338 344 342 345 345 342 339 343 344 343 342 342 339 338 336 337 337 339 341
324 320 319 318 316 315 314 313 313 314 314 314 315 316 316 317 315 314 314 314 316 317 319 320 321 322 322 321 321 321 322 322 324 324 323 323 322 322 323 324 324 326 328 327 329 335 338 338 339 337 336 335 335 334 329 329 336 337 339 340 339 341 340 345 343 342 342 342 340 337 336 338 339 342
319 318 317 315 314 313 312 312 312 312 312 313 313 313 313 314 314 314 314 315 317 316 317 317 317 319 320 321 321 321 322 322 323 323 322 321 319 319 320 320 320 320 322 322 323 324 331 335 336 332 330 330 331 330 330 324 325 336 335 334 338 339 340 341 341 340 340 339 340 338 334 335 337 340
317 316 315 313 313 312 311 311 311 310 310 311 311 312 312 311 312 314 314 316 317 317 316 317 317 317 318 320 321 321 322 322 321 322 321 321 320 320 318 319 320 319 318 320 322 323 324 326 332 333 331 330 328 327 325 331 320 317 330 336 337 339 338 338 338 338 341 342 340 336 335 338 336 339
314 313 313 312 311 310 310 309 309 309 309 309 310 311 312 312 312 313 314 314 315 316 316 317 317 317 318 318 320 321 322 322 322 322 321 322 320 319 319 319 319 320 320 319 319 320 322 322 323 326 327 322 319 320 321 328 329 324 309 325 334 335 338 337 336 336 337 340 336 334 335 334 335 337
311 309 309 308 308 307 307 306 307 306 307 307 308 308 309 311 310 310 310 310 312 314 315 316 316 317 318 318 318 319 320 321 321 320 320 321 321 320 320 320 319 320 320 319 320 320 320 319 321 322 323 321 320 321 324 322 322 327 318 306 327 335 334 335 334 336 336 333 332 334 335 336 329 325
308 308 305 305 304 304 303 303 303 304 304 304 305 306 307 308 307 307 308 308 310 312 313 313 314 314 317 318 317 319 320 321 321 321 321 321 321 322 322 321 322 323 322 319 319 320 319 319 320 321 322 323 326 328 328 327 328 329 327 318 302 315 332 335 332 331 330 333 334 332 331 334 333 335
305 304 303 302 302 301 301 300 300 301 301 301 302 303 305 306 305 304 306 306 309 309 309 310 312 313 314 316 316 317 317 319 319 319 321 322 322 322 322 320 322 323 320 319 320 321 321 323 325 322 328 329 331 332 328 323 319 321 324 325 310 305 307 315 332 332 331 333 333 331 330 330 330 332
303 302 302 302 301 300 300 299 299 299 299 299 299 301 302 303 304 303 304 305 306 308 308 308 309 311 312 313 313 313 315 317 317 316 318 319 320 321 322 322 322 323 321 319 320 321 326 329 330 329 329 327 324 319 317 319 318 321 323 327 326 312 308 308 308 314 326 332 331 328 327 328 330 329
304 303 302 302 302 301 302 301 300 299 298 298 298 299 299 300 302 303 302 302 303 304 305 306 308 309 311 312 312 312 312 312 315 316 317 317 319 319 320 321 322 323 324 324 325 326 326 328 329 329 328 325 324 324 318 320 322 322 322 324 327 327 322 313 309 310 312 311 313 320 328 331 327 321
302 302 302 302 301 302 302 302 302 300 300 299 299 299 298 298 299 300 301 301 301 302 304 305 306 308 309 310 311 311 311 311 313 314 314 315 316 317 319 322 322 323 324 325 325 326 327 327 328 328 325 323 324 322 320 320 321 322 322 323 327 325 324 327 328 317 315 312 309 310 310 311 312 315
302 301 301 301 301 301 301 301 301 301 300 300 299 299 299 298 298 299 300 300 300 301 302 303 304 306 307 308 309 308 309 308 310 312 312 313 314 315 316 318 319 321 321 322 323 324 326 326 327 327 326 325 326 324 325 325 323 323 323 323 323 325 326 325 323 321 323 324 312 308 309 311 313 311
Wind_Speed
11 10 12 10 10 9 11 11 11 11 10 7 6 6 8 8 10 10 11 11 9 10 10 8 7 12 12 10 9 10 10 13 14 11 11 12 12 15 21 21 21 21 22 22 23 23 23 23 23 23 23 22 22 22 21 20 19 19 19 18 18 18 17 17 17 16 17 17 17 17 18 18 18 18
9 10 11 11 11 11 11 12 13 11 11 8 9 10 12 10 12 12 12 12 10 10 8 7 8 7 11 7 3 3 5 11 14 14 12 13 14 15 17 19 20 21 22 22 22 22 22 22 22 22 22 22 22 22 22 21 20 20 20 19 19 18 18 17 17 17 17 17 18 18 18 18 18 18
9 10 12 12 11 12 13 12 13 12 12 10 9 10 9 12 12 11 10 14 12 9 11 11 12 10 11 8 5 6 7 10 10 13 14 14 16 15 14 18 20 21 21 21 21 21 21 21 21 21 21 21 22 22 21 21 21 20 20 19 19 18 18 18 18 18 18 18 18 18 18 18 18 18
9 11 12 13 12 12 12 12 12 11 12 12 12 10 11 10 11 10 12 15 16 8 11 11 11 15 12 8 7 7 5 6 10 9 15 14 14 10 10 15 20 20 21 20 20 20 21 21 21 21 20 20 20 20 21 21 20 20 20 19 19 19 18 18 18 18 18 18 18 18 18 18 18 18
11 11 12 13 14 14 15 13 12 13 14 12 9 11 11 10 11 13 12 14 17 13 9 11 12 13 12 7 6 6 6 7 7 9 12 17 14 13 11 9 15 18 19 19 20 20 21 21 21 20 20 20 20 20 20 20 20 20 20 19 19 19 18 18 18 18 18 17 18 18 18 18 17 17
10 11 13 14 15 14 15 15 14 13 14 13 11 9 10 13 13 13 12 14 15 17 9 11 12 13 14 11 8 8 9 9 5 7 10 16 16 11 10 10 9 16 18 19 20 20 20 20 20 20 20 19 19 20 20 20 20 20 20 19 20 19 18 18 17 17 17 17 17 18 17 17 17 17
11 12 13 14 14 13 15 16 15 14 14 14 14 15 11 13 16 12 14 14 14 14 11 10 11 11 12 14 13 11 10 9 7 8 12 13 9 10 11 10 8 11 18 20 20 20 20 19 19 19 19 19 20 20 20 20 20 20 19 19 19 19 19 18 18 18 17 17 17 18 17 17 17 17
11 12 13 13 15 15 16 15 15 14 13 13 12 15 11 13 16 14 11 15 13 9 11 11 11 12 11 11 14 12 9 11 9 9 10 13 13 8 10 10 8 9 16 20 20 20 19 19 18 19 18 19 19 19 19 19 19 19 19 19 19 19 18 18 17 17 17 17 17 17 17 17 17 17
11 12 12 14 15 15 15 15 15 15 18 16 14 15 15 12 13 15 17 15 12 12 12 10 10 9 12 10 12 13 11 9 10 9 13 13 10 8 6 8 9 13 24 21 20 18 18 18 18 18 18 18 18 18 19 19 19 19 19 18 18 18 17 17 17 17 16 16 17 17 17 17 17 17
10 11 12 13 13 14 13 14 15 15 16 16 16 17 16 14 12 15 18 13 11 13 14 12 11 10 8 10 12 12 11 10 10 11 13 15 10 8 7 9 10 5 6 6 8 11 12 16 17 17 16 17 17 18 18 18 18 18 18 18 17 17 17 17 17 16 16 16 16 16 16 17 17 16
10 10 11 11 12 12 13 13 13 13 14 13 16 15 16 15 13 12 14 13 11 10 10 12 12 9 10 11 11 11 12 10 11 11 10 13 11 9 10 11 9 10 10 11 12 11 11 13 12 14 17 16 17 17 17 17 17 17 17 17 17 17 17 17 16 16 16 16 16 16 16 16 16 16
9 9 10 10 9 10 11 12 12 11 11 12 13 14 13 14 14 13 12 15 13 12 12 10 11 11 11 11 13 12 10 12 13 11 12 12 10 11 11 11 10 9 8 11 10 9 10 10 14 15 16 17 17 17 15 17 17 17 17 16 17 17 17 17 16 16 16 16 16 15 15 15 14 15
8 7 7 8 9 10 11 14 14 13 12 10 12 14 12 14 13 13 11 12 12 11 9 8 10 11 13 11 10 12 12 11 12 10 11 10 9 7 6 9 8 6 8 9 10 10 10 10 10 9 8 9 14 13 15 13 17 17 16 17 17 17 17 17 17 17 17 16 16 16 15 15 15 15
8 8 7 8 10 10 13 14 15 14 16 16 10 12 12 14 14 12 11 11 11 13 11 11 12 13 13 13 13 15 16 11 8 9 10 11 11 9 11 7 7 7 10 10 9 8 8 10 9 9 9 8 10 9 9 10 12 14 18 18 19 19 18 18 18 18 17 17 16 15 15 15 15 15
9 8 7 8 10 11 11 10 12 15 16 14 15 17 17 15 13 13 14 12 11 11 12 10 12 13 13 15 14 15 15 13 12 11 9 9 11 11 11 12 6 5 8 11 9 7 5 3 5 6 8 9 8 10 11 15 18 17 18 21 21 20 20 19 18 18 18 16 15 15 15 14 15 15
8 8 8 7 7 8 9 10 10 12 13 13 16 18 19 19 19 17 13 12 11 10 12 14 14 14 14 12 13 16 15 12 11 11 11 10 12 13 13 10 10 7 11 10 9 8 5 6 7 7 7 7 8 10 14 18 20 21 21 20 21 21 20 19 18 18 17 16 15 15 15 15 14 14
9 8 8 8 9 9 13 10 11 12 12 13 14 17 19 19 17 17 16 18 15 11 12 13 14 13 13 14 14 13 14 12 13 10 11 10 10 12 12 11 10 8 11 9 8 10 8 8 8 9 10 9 10 10 13 17 20 22 23 20 19 19 18 18 17 16 16 16 15 15 15 14 14 14
9 9 8 8 9 10 12 9 9 11 14 14 13 14 15 17 18 17 18 16 19 19 14 14 16 16 16 17 13 14 16 14 13 11 13 10 11 11 15 11 9 7 11 11 9 9 9 9 9 11 10 10 10 9 13 16 19 21 21 19 17 17 16 16 16 16 15 15 15 15 14 13 13 13
11 10 9 9 10 12 12 9 11 11 13 15 14 14 16 19 17 17 17 16 14 11 10 15 18 18 17 17 17 16 12 13 13 12 12 11 9 8 7 7 8 8 11 12 10 11 10 8 8 9 10 10 10 9 11 17 18 18 17 17 16 15 16 15 15 14 15 14 14 14 13 13 12 12
10 9 9 9 9 11 12 13 12 11 11 13 15 17 19 20 19 18 16 16 15 14 16 17 18 18 19 18 17 15 15 12 10 10 7 3 1 4 7 10 10 10 10 10 10 8 8 9 10 10 11 8 7 8 10 15 19 18 17 17 16 16 14 14 13 14 14 14 14 13 12 12 12 12
10 10 9 9 8 10 11 13 12 14 12 13 17 17 19 19 20 19 17 17 17 17 19 22 28 28 23 22 23 19 16 12 5 3 6 10 7 9 12 13 10 10 8 8 10 10 12 9 11 11 10 10 13 13 13 10 16 19 18 17 16 15 14 13 13 13 13 13 13 12 12 11 11 9
8 9 10 11 9 9 10 12 13 14 12 14 15 16 19 21 20 20 20 18 19 21 21 23 26 29 27 24 22 17 16 15 10 7 10 12 9 9 7 8 10 9 9 9 11 8 9 8 11 11 8 7 5 10 8 10 9 12 11 14 14 13 12 12 12 12 12 12 12 11 11 11 9 6
9 9 9 11 9 8 9 11 11 13 12 11 12 14 17 18 21 22 24 24 24 24 22 18 15 17 20 17 15 13 16 14 14 12 11 10 6 8 8 10 8 9 10 10 12 11 11 10 8 9 2 6 10 9 9 8 9 8 8 6 6 10 11 11 11 11 11 10 11 11 11 11 10 6
8 9 10 9 9 7 8 9 11 12 15 10 10 12 14 15 21 19 22 23 20 23 22 17 15 15 16 16 16 16 14 11 13 15 14 12 10 9 9 10 10 11 9 9 15 11 7 8 7 6 9 8 8 11 10 9 9 10 9 7 7 6 8 8 6 8 8 10 10 11 12 12 11 6
11 9 9 9 9 8 9 10 12 13 14 14 10 11 12 13 19 20 15 21 29 21 14 9 11 12 13 14 16 16 17 16 15 14 15 16 14 11 11 9 9 14 11 9 19 11 9 10 9 5 9 9 10 9 8 10 9 10 9 9 8 8 7 6 6 5 5 6 8 9 10 12 15 7
10 9 9 9 6 9 12 13 13 14 14 16 11 12 18 22 23 19 13 16 18 16 12 5 8 9 11 14 14 15 16 16 16 16 16 16 17 14 11 12 11 9 11 8 17 12 8 6 6 6 7 11 12 11 9 9 10 9 10 9 9 9 9 8 7 7 6 5 5 5 7 11 13 7
10 9 9 9 9 14 13 13 13 13 14 12 11 18 20 21 23 18 13 15 16 14 12 13 10 8 5 9 12 14 15 15 15 16 16 17 16 14 12 13 13 12 8 6 12 8 6 6 6 7 9 11 10 8 7 10 9 7 9 9 10 10 10 9 9 8 8 8 6 8 7 6 8 5
10 9 9 9 13 15 14 11 11 12 12 10 15 18 20 20 19 14 14 14 15 13 13 14 9 8 9 9 6 8 9 12 14 14 16 15 15 14 12 12 12 8 3 7 7 7 7 8 7 6 6 8 10 9 10 7 9 11 10 9 10 10 9 10 9 7 8 8 7 6 6 5 4 5
9 9 11 13 13 13 13 12 10 9 9 12 15 18 19 17 11 14 14 15 15 14 14 12 10 10 10 9 9 9 11 12 11 11 12 14 13 10 5 2 3 1 3 3 5 6 7 8 8 3 2 7 9 9 9 7 9 11 10 11 10 11 10 10 9 9 8 8 8 8 8 8 7 6
18 16 14 14 13 12 10 6 5 5 7 11 14 15 16 12 12 11 12 14 14 16 15 14 13 12 12 12 8 8 8 9 7 8 10 12 12 12 9 9 6 7 8 7 5 4 6 6 5 2 7 8 8 10 9 8 10 10 10 11 9 8 9 10 10 9 8 8 7 8 9 9 8 7
7 9 10 9 10 11 13 12 9 7 6 8 10 9 10 11 11 12 12 12 12 14 14 13 13 13 11 11 12 10 9 7 10 8 6 7 8 10 11 11 10 8 7 7 6 8 6 5 5 8 8 8 9 6 3 2 5 9 8 8 9 9 9 9 10 9 8 7 7 6 6 6 6 7
9 9 9 9 6 4 3 3 4 5 5 7 8 9 10 11 12 14 17 16 12 12 11 11 11 12 12 14 12 12 11 11 5 6 9 9 9 8 8 7 5 4 5 6 5 8 8 6 5 4 5 5 5 6 2 1 4 6 7 5 6 7 9 11 11 9 10 8 7 7 7 6 7 7
9 7 6 6 6 7 7 7 7 7 7 8 8 10 11 10 10 11 9 12 13 12 12 13 12 13 12 13 12 12 14 11 11 10 4 8 8 4 4 4 4 6 9 7 7 6 5 5 5 4 3 1 2 2 3 4 3 5 8 6 5 5 6 7 9 9 9 8 7 8 7 6 7 7
6 7 6 6 7 7 7 8 8 9 8 8 9 8 9 10 10 10 10 11 11 12 12 11 12 13 12 13 12 12 12 12 12 12 14 11 5 4 6 6 4 5 6 6 5 6 6 6 5 6 5 5 7 8 4 3 3 6 5 6 6 6 5 5 6 9 9 9 9 9 8 7 6 7
2 6 6 6 7 7 7 7 8 8 8 8 9 7 7 7 10 10 10 10 11 11 11 12 11 11 12 12 12 12 12 11 11 12 13 14 15 14 10 9 8 7 6 6 4 3 6 7 7 6 4 5 4 5 12 8 2 3 5 4 4 5 5 5 8 8 7 7 7 7 8 7 8 7
5 5 6 6 7 7 7 8 8 8 8 9 9 9 8 8 9 10 10 10 9 10 11 11 11 11 11 10 11 11 11 11 11 11 12 12 12 12 11 10 10 10 9 8 6 7 2 5 6 7 5 4 5 5 3 10 11 1 4 4 3 5 4 6 6 6 7 6 6 6 7 8 8 9
6 6 6 7 7 7 7 7 8 8 9 9 9 9 9 9 10 9 10 9 8 8 9 10 10 10 11 10 10 10 10 10 11 10 10 10 10 9 9 9 9 11 12 10 8 9 9 7 1 6 5 5 4 3 4 2 10 12 1 5 5 5 7 7 6 5 5 4 4 4 3 2 6 7
7 7 7 7 8 7 7 8 8 8 8 9 9 9 9 9 9 9 9 9 9 9 10 9 9 10 9 10 10 10 9 9 9 9 9 9 9 8 8 8 8 9 8 8 9 11 10 12 11 8 6 8 7 6 4 3 4 7 9 1 5 6 4 7 9 8 6 3 6 5 3 3 5 4
7 7 8 8 8 8 8 8 8 8 8 9 9 9 10 9 10 10 10 10 9 9 9 9 10 9 9 10 10 9 9 10 10 9 8 8 8 8 8 7 7 6 6 8 10 11 11 12 10 9 7 7 6 4 4 5 3 2 11 20 3 5 5 4 6 4 5 5 5 4 5 5 8 9
8 8 8 7 8 8 8 8 8 8 8 9 9 9 10 10 9 10 10 11 10 10 9 9 10 10 10 10 10 10 10 11 10 10 10 7 6 6 6 6 6 6 6 9 10 9 10 9 8 8 7 6 4 3 3 3 3 3 8 14 17 7 1 7 6 6 6 6 6 5 6 5 4 3
7 8 7 7 7 7 7 7 7 8 8 8 9 9 9 9 9 10 9 10 10 10 10 10 10 11 10 10 10 10 10 10 10 10 10 9 7 6 7 5 6 6 7 8 8 8 9 7 6 9 7 5 5 4 4 5 6 7 8 9 15 16 17 14 5 5 6 4 4 5 5 4 4 4
6 6 6 6 7 7 6 6 7 7 7 8 8 9 8 8 8 10 9 11 10 10 10 10 10 10 10 10 10 10 10 9 10 10 10 9 8 8 8 7 6 6 7 7 8 7 5 5 6 5 6 6 6 8 8 6 5 5 7 7 7 11 16 18 19 16 10 4 4 5 4 4 4 3
5 5 5 5 5 6 6 6 6 6 7 7 7 8 8 8 8 9 9 10 10 10 10 10 10 10 10 10 9 9 9 10 9 9 9 9 10 9 8 7 6 5 5 5 5 4 4 4 5 5 5 6 6 5 6 4 3 4 6 6 7 6 7 12 16 18 18 18 13 7 3 3 4 4
6 6 6 5 5 6 6 6 6 6 6 6 6 7 7 8 8 9 9 9 9 9 10 10 10 10 11 10 10 9 9 9 9 9 8 8 9 9 8 7 7 6 5 4 3 3 2 2 4 4 4 5 4 4 5 5 5 5 4 3 4 5 7 4 6 9 11 13 12 10 12 14 10 5
6 6 6 5 5 6 6 6 6 7 7 7 7 7 7 7 8 8 8 9 9 10 10 10 10 10 10 10 10 10 10 9 9 9 9 9 9 9 10 10 9 8 6 6 5 3 3 2 2 1 2 2 2 3 4 4 4 2 3 3 4 4 3 2 4 6 5 4 8 10 9 10 11 11
Wind_Direction
302 300 302 297 289 286 283 280 277 268 257 255 245 234 237 225 243 263 263 262 260 255 241 246 263 260 259 228 225 231 231 233 236 216 213 217 222 200 202 204 209 211 214 217 219 220 221 222 222 222 223 224 226 228 230 232 233 235 237 238 240 241 242 242 242 242 242 242 240 240 241 242 244 243
309 309 307 302 297 292 286 284 280 272 259 240 242 240 235 231 236 237 252 263 248 255 247 225 249 252 246 239 221 246 254 266 251 235 225 226 225 210 190 202 207 210 214 216 218 219 220 220 220 221 221 223 224 227 229 230 232 235 236 238 239 240 240 241 241 242 243 243 243 242 241 242 243 244
312 311 307 305 300 299 296 294 289 286 273 246 231 245 243 236 217 229 240 256 251 236 254 248 244 229 233 247 233 224 233 251 271 264 241 228 226 215 204 204 207 211 212 215 216 217 218 219 219 219 220 222 224 226 228 229 231 232 235 238 240 240 239 239 240 241 242 243 244 245 244 244 244 244
316 318 315 309 304 299 293 290 285 276 272 275 267 243 239 233 236 236 233 242 256 231 244 251 253 258 243 222 217 219 233 256 258 254 258 238 223 211 224 205 210 208 210 211 214 214 216 216 217 218 218 220 223 226 228 229 230 231 234 236 238 238 237 237 238 239 240 241 242 243 244 245 246 245
318 312 311 307 301 299 295 291 290 289 282 272 269 269 259 252 246 237 230 235 249 252 238 250 254 255 255 227 203 218 220 231 239 245 252 255 228 221 220 215 201 209 208 210 211 213 214 215 216 216 216 218 221 225 227 229 230 231 232 234 235 236 236 236 236 237 238 239 240 241 242 243 244 244
314 317 312 306 304 304 299 298 295 295 294 287 284 268 268 265 243 233 230 231 238 252 241 246 241 245 246 245 198 211 210 222 204 251 248 242 233 215 211 215 208 202 210 208 209 212 212 213 213 213 214 216 219 222 225 228 228 229 230 231 232 234 234 234 234 236 237 238 239 240 241 242 243 244
317 315 313 311 313 314 310 309 305 302 298 297 290 284 270 261 260 239 235 240 239 242 241 239 247 245 242 244 241 216 216 216 178 211 242 253 267 236 210 206 205 201 210 209 207 209 210 210 209 210 212 215 218 221 223 225 226 226 227 228 229 230 231 232 232 233 235 235 237 239 240 240 241 243
318 318 317 317 318 318 315 315 313 312 310 310 302 293 282 279 265 258 241 238 242 239 250 242 244 249 250 243 245 232 208 214 210 212 235 236 237 229 224 212 202 195 213 211 207 207 208 208 207 207 210 213 216 219 221 222 223 224 224 225 226 228 229 230 230 231 232 233 235 237 238 239 240 241
318 319 321 323 322 322 322 323 322 322 319 318 311 306 300 286 275 264 252 235 225 238 240 249 250 253 254 247 241 233 222 206 212 204 230 242 230 225 246 243 221 186 204 205 205 205 205 207 206 206 208 211 214 216 218 219 221 221 222 224 225 226 227 228 229 231 233 232 233 234 236 238 239 240
320 326 330 326 328 329 331 330 328 326 322 316 311 310 305 299 287 271 255 233 224 230 239 242 253 249 255 258 251 230 215 214 213 219 216 226 218 201 214 233 224 209 175 177 200 207 211 210 206 204 207 212 213 215 216 218 220 221 222 223 225 226 226 227 229 229 231 231 232 233 235 236 237 239
322 328 332 335 339 338 335 328 320 313 307 312 313 312 314 308 300 286 273 257 232 226 233 239 241 249 247 242 246 242 228 215 221 219 214 228 211 206 198 217 218 213 201 196 180 190 198 200 203 205 208 210 213 214 216 218 220 222 223 224 225 226 227 228 228 229 229 230 231 232 233 235 237 237
321 330 337 333 338 338 328 318 308 298 301 308 304 310 313 313 309 305 293 258 235 236 230 232 235 231 246 246 242 241 229 233 233 228 226 225 217 206 217 216 208 197 201 201 195 184 194 197 199 198 202 210 213 214 218 220 222 222 225 226 228 227 227 228 228 228 229 229 229 230 231 233 236 240
314 323 325 322 327 318 303 295 289 283 286 296 301 309 315 312 312 309 306 299 283 250 220 230 235 239 239 241 246 243 237 221 224 220 223 235 224 202 206 213 205 199 199 200 198 193 196 205 204 201 202 206 210 220 221 226 221 225 224 226 226 227 226 226 226 226 227 228 228 228 229 230 232 234
303 309 309 306 302 287 284 286 286 289 293 290 278 296 304 305 304 304 300 292 279 270 250 228 233 233 233 236 231 238 231 218 212 233 232 229 220 200 211 198 190 197 219 196 190 193 197 207 209 202 207 208 190 213 205 220 223 216 220 224 225 225 225 225 224 225 226 226 226 226 227 229 231 233
303 305 294 293 290 284 281 278 283 291 293 293 296 296 291 286 282 291 292 288 287 277 274 257 239 234 232 234 229 231 238 226 214 213 213 231 230 222 213 215 206 210 224 218 192 197 189 195 224 216 213 210 199 204 215 213 219 222 214 219 222 222 224 224 223 223 223 223 222 223 225 226 228 230
299 301 294 286 285 279 277 285 288 291 293 298 300 305 305 297 285 266 251 271 279 270 268 259 244 237 237 239 241 242 234 229 225 219 216 215 226 226 217 210 211 176 195 209 203 203 165 183 208 228 230 226 222 208 216 210 209 217 218 216 217 219 222 223 222 221 219 218 218 220 221 223 226 228
287 297 295 296 297 295 291 290 299 301 303 302 299 300 300 296 291 291 268 233 236 257 259 263 258 243 234 234 236 238 242 229 233 214 215 214 227 228 217 213 212 169 181 190 192 202 188 180 198 216 226 223 223 222 221 212 203 210 214 212 212 214 216 219 219 218 216 215 215 217 218 218 221 223
277 284 296 293 292 292 299 296 297 304 311 313 314 312 312 316 314 304 292 271 237 229 244 253 254 248 242 240 236 234 234 232 231 222 219 209 209 227 231 216 214 166 178 191 190 208 200 178 192 213 224 221 230 222 220 211 206 204 203 204 204 205 209 212 214 213 213 213 212 212 212 213 216 217
277 282 282 286 288 296 300 300 303 300 312 318 314 309 312 321 319 313 307 306 310 295 259 241 244 247 240 239 242 244 235 224 231 225 223 215 217 225 254 237 209 171 191 186 175 203 195 176 191 214 215 214 220 219 227 195 192 192 192 194 194 198 201 204 207 210 211 210 208 207 207 209 211 213
276 274 276 281 286 297 299 303 307 310 323 318 316 315 319 323 320 316 304 290 283 275 279 277 261 246 233 231 238 240 238 233 230 238 238 227 174 227 226 231 211 210 202 182 183 191 194 186 200 209 208 185 217 217 232 194 184 184 184 188 191 194 195 199 202 205 206 206 205 205 203 205 207 208
278 272 273 281 291 298 298 307 319 318 333 321 320 318 319 321 319 316 314 304 293 283 271 262 257 258 256 237 231 236 238 235 227 235 209 229 218 222 226 218 207 209 191 187 195 198 208 197 202 215 210 186 199 209 206 189 188 181 184 187 190 189 190 194 197 200 202 203 203 201 199 201 205 200
279 277 279 270 280 285 294 306 310 314 328 324 318 318 319 319 320 321 323 317 309 297 279 267 255 245 241 244 235 228 217 217 210 197 228 224 211 219 216 238 226 215 206 194 185 194 211 196 198 204 211 218 225 207 194 173 173 177 181 185 181 181 182 188 194 195 198 198 197 195 192 193 178 172
302 293 291 282 271 273 280 287 301 317 324 317 308 314 315 315 322 327 324 318 312 309 301 283 251 231 228 229 230 222 212 207 206 210 213 226 219 233 226 223 219 216 215 192 162 192 208 214 207 178 171 237 235 230 203 176 153 166 175 168 181 176 173 183 186 190 188 189 189 187 182 175 172 189
296 300 302 296 287 267 275 308 325 322 315 310 300 309 312 314 319 319 316 310 304 298 290 270 255 229 214 215 220 223 215 202 211 222 220 214 213 218 232 234 229 221 212 189 168 196 205 201 225 168 179 208 219 223 198 163 160 168 173 169 184 158 159 154 159 174 175 179 180 180 176 172 186 191
313 313 310 311 316 350 349 337 324 314 309 308 308 306 308 310 304 306 305 310 313 303 283 255 251 240 215 211 214 217 223 220 215 219 223 226 219 206 220 233 232 240 224 190 172 197 198 201 201 146 218 228 226 199 190 167 168 177 180 178 179 156 167 171 165 157 151 164 172 176 179 182 198 221
309 312 309 307 342 4 335 327 318 308 308 311 311 303 305 306 313 319 312 321 324 330 344 279 257 248 221 212 210 216 218 217 216 216 217 220 225 215 204 214 226 240 228 197 172 188 188 203 168 173 228 230 230 193 181 185 176 176 185 190 181 163 174 173 180 173 170 179 162 185 192 195 208 191
304 306 308 309 335 331 324 316 310 305 305 308 310 309 310 313 318 321 334 330 333 338 354 16 8 331 257 224 219 216 220 217 212 213 215 216 217 220 215 205 219 237 241 161 186 173 172 199 192 186 194 244 248 202 175 199 188 157 185 192 181 163 176 177 182 174 178 182 180 146 164 186 219 228
297 300 307 315 318 312 309 303 299 297 299 305 309 313 314 319 324 332 335 340 340 345 0 7 3 358 350 321 262 213 218 224 209 208 210 212 214 213 220 220 217 237 188 184 205 186 178 199 214 185 176 226 249 223 184 205 174 176 187 192 192 177 179 185 176 167 166 179 166 166 184 184 189 188
288 301 305 301 299 297 294 288 280 281 296 316 323 319 318 323 340 338 341 341 348 356 2 359 353 349 347 331 317 283 235 217 215 203 209 212 209 201 194 188 73 42 210 202 171 162 174 196 208 136 225 256 227 246 223 199 171 171 178 180 195 182 178 179 176 167 167 173 170 177 188 193 187 183
281 282 280 281 281 278 270 274 307 315 314 322 327 327 333 336 338 340 340 342 348 359 358 358 359 350 346 347 338 327 264 235 208 191 196 205 207 201 195 206 181 205 233 231 163 164 197 191 202 166 245 248 229 238 229 200 188 183 175 187 185 170 183 180 169 158 160 169 175 184 196 200 193 173
296 305 301 297 293 282 284 280 269 272 310 345 350 344 344 337 343 341 343 337 344 354 359 360 359 355 348 352 8 6 340 236 207 205 193 201 205 202 200 200 197 194 210 222 194 205 201 185 177 205 223 245 245 244 250 232 173 171 174 186 182 180 177 177 166 162 168 173 175 180 187 183 170 176
313 303 299 297 285 292 290 337 4 1 6 4 351 355 350 348 347 346 342 341 341 350 355 359 356 355 357 12 11 10 13 359 309 224 187 214 209 185 171 165 169 169 197 206 219 202 195 201 184 177 197 232 253 254 169 143 154 168 148 180 180 172 173 176 171 171 169 166 163 176 174 176 170 171
297 292 298 297 345 358 5 359 359 359 8 2 359 2 359 354 352 346 349 350 344 340 351 0 2 0 2 9 12 19 19 9 15 4 272 196 193 159 164 171 167 191 206 210 209 201 189 202 185 155 150 197 167 264 240 196 170 146 163 159 146 149 171 172 175 161 154 151 166 169 161 179 179 175
288 300 327 1 11 1 11 5 2 358 3 2 355 360 359 359 355 353 353 352 339 341 349 358 4 4 1 9 12 20 17 13 22 30 38 16 12 133 175 201 182 173 197 207 198 194 182 176 158 121 94 79 53 51 35 282 191 162 152 151 150 157 164 161 160 149 163 167 165 167 167 176 171 175
284 351 8 13 17 8 13 11 4 358 360 359 356 359 355 352 352 355 356 346 345 349 352 356 360 5 5 8 11 13 16 16 19 30 35 34 37 32 26 52 51 46 48 38 5 312 187 168 152 134 145 142 113 78 54 42 299 128 129 122 162 151 152 157 147 144 160 170 174 169 164 167 171 172
22 14 22 25 20 19 14 16 8 2 1 358 0 357 356 353 353 353 348 340 345 352 2 360 359 358 2 5 6 8 10 11 29 32 40 46 45 42 34 39 53 55 52 41 19 3 0 171 171 157 150 143 164 181 66 34 47 50 139 148 180 165 155 141 143 149 165 182 190 167 167 171 170 168
22 22 31 30 25 19 14 14 12 8 2 355 356 359 1 358 355 348 342 332 347 359 1 358 3 358 1 359 5 13 9 13 28 30 41 48 47 42 46 29 42 51 47 37 25 33 34 25 35 146 142 143 172 165 77 0 45 42 1 168 156 146 155 149 142 163 170 187 144 67 49 105 163 160
31 25 26 29 25 15 15 11 6 4 1 355 356 354 1 1 354 346 346 348 356 359 360 356 355 2 3 5 6 9 7 12 21 30 31 37 44 38 39 42 27 41 50 44 38 39 34 43 32 17 78 94 90 78 96 36 17 19 23 31 157 145 153 150 161 166 157 76 93 100 86 98 84 56
31 32 28 26 20 15 14 11 3 2 2 357 355 356 354 358 358 355 356 353 351 355 357 360 2 358 2 8 8 6 9 10 20 26 27 26 30 35 29 34 41 35 42 51 50 47 43 45 39 29 30 54 58 56 55 82 13 300 38 40 32 151 147 152 142 132 134 113 93 77 100 69 81 77
36 41 36 30 26 21 21 12 6 3 5 358 354 355 354 356 5 357 358 353 354 354 357 358 356 359 6 6 3 2 8 14 15 15 20 29 29 29 27 20 25 23 39 49 49 47 51 45 35 27 22 32 56 59 79 92 162 27 41 46 37 32 131 163 129 138 107 96 123 138 121 121 113 135
33 35 32 28 25 24 22 16 5 7 4 358 356 353 356 359 5 360 1 356 354 357 0 360 1 2 6 3 1 358 4 8 12 9 5 8 14 19 21 19 32 28 40 39 38 41 42 41 34 15 13 3 23 40 60 33 29 34 43 47 28 34 38 29 71 95 91 106 112 104 110 117 127 138
34 35 33 27 25 17 16 13 10 3 360 359 356 351 354 355 2 355 358 359 356 360 3 0 359 1 6 8 4 358 7 6 10 5 6 2 7 9 10 15 21 21 38 44 39 39 27 23 20 18 18 21 38 56 58 43 9 23 52 46 63 37 49 58 51 54 52 72 108 106 95 66 71 69
29 34 31 28 26 14 6 12 11 10 3 360 354 352 353 354 354 359 6 2 0 1 1 359 359 1 1 7 10 9 9 3 9 4 3 0 6 5 1 359 11 17 29 47 58 48 38 16 26 20 26 32 31 51 68 55 43 33 38 44 49 67 56 58 67 60 54 45 39 50 31 124 110 89
18 22 29 26 25 19 12 4 6 8 1 356 360 0 4 1 358 359 6 4 1 358 353 356 355 1 0 2 5 8 12 9 8 5 1 5 3 1 351 356 3 7 12 32 37 55 64 55 38 22 23 42 23 33 43 35 41 35 58 42 53 48 50 50 68 89 80 63 41 30 47 60 74 93
16 25 20 17 21 23 16 9 4 4 4 2 4 4 6 8 2 359 4 7 5 356 357 358 353 356 360 360 4 7 3 7 10 13 9 8 8 1 3 10 8 7 11 357 349 34 41 41 55 68 44 49 73 40 49 40 46 50 41 60 66 65 56 17 64 66 55 51 39 52 57 68 74 77